Location: ?p Thanh B�nh
(16.5833°N, 107.5333°E)
Time: 04:43:45
(UTC+00:00)

Cosmos 2180 Rocket - Pass Details

Date: 29 October 2020
Orbit: 953 x 1006 km, 82.9° (Epoch: 29 November)

Event Time Altitude Azimuth Distance (km) Brightness Sun altitude
Exits shadow 21:05:11 19° 346° (NNW) 2,134 6.1 -24.7°
Maximum altitude 21:09:44 67° 268° (W) 1,028 4.3 -23.6°
Drops below altitude 10° 21:15:47 10° 186° (S) 2,672 6.8 -22.2°
Sets 21:18:17 0° 183° (S) 3,615 7.6 -21.6°
